Zurück zum Katalog

METEOR 2-20 DEB

AktivPO
NORAD 59999·DEBRIS·🇷🇺 Russia

Gestartet Sep 28, 1990 von Plesetsk Cosmodrome

Loading…

Nächste Überflüge (nächste 24 Stunden)

TLE

AlterndSource: Space-Track

Epoche: Sep 10, 2026, 23:54 UTC

1 59999U 90086J   26253.99617178  .00000250  00000-0  17703-3 0  9998
2 59999  82.5729 120.5426 0015310  42.9905 317.2454 13.94106421512684

Verfolge METEOR 2-20 DEB in Echtzeit mit AllMySat

Download on the App Store